Time,TemperatureF,DewpointF,PressureIn,WindDirection,WindDirectionDegrees,WindSpeedMPH,WindSpeedGustMPH,Humidity,HourlyPrecipIn,Conditions,Clouds,dailyrainin,SolarRadiationWatts/m^2,SoftwareType,DateUTC
2013-08-22 00:09:00,58.4,56.0,30.08,West,270,0.0,-999.0,91,-99.99,,,0.00,0,weatherlink.com 1.10,2013-08-22 04:09:00,
2013-08-22 00:24:00,58.2,56.0,30.09,West,270,0.0,-999.0,91,-99.99,,,0.00,0,weatherlink.com 1.10,2013-08-22 04:24:00,
2013-08-22 00:39:00,58.0,55.0,30.09,West,270,0.0,-999.0,91,-99.99,,,0.00,0,weatherlink.com 1.10,2013-08-22 04:39:00,
2013-08-22 00:54:00,57.8,55.0,30.09,West,270,0.0,-999.0,91,-99.99,,,0.00,0,weatherlink.com 1.10,2013-08-22 04:54:00,
2013-08-22 01:09:00,57.8,56.0,30.09,West,270,0.0,-999.0,92,-99.99,,,0.00,0,weatherlink.com 1.10,2013-08-22 05:09:00,
2013-08-22 01:24:00,57.6,55.0,30.09,West,270,0.0,-999.0,92,-99.99,,,0.00,0,weatherlink.com 1.10,2013-08-22 05:24:00,
2013-08-22 01:39:00,57.6,55.0,30.09,West,270,0.0,-999.0,92,-99.99,,,0.00,0,weatherlink.com 1.10,2013-08-22 05:39:00,
2013-08-22 01:54:00,57.4,55.0,30.09,West,270,0.0,-999.0,92,-99.99,,,0.00,0,weatherlink.com 1.10,2013-08-22 05:54:00,
2013-08-22 02:09:00,57.2,55.0,30.09,West,270,0.0,-999.0,92,-99.99,,,0.00,0,weatherlink.com 1.10,2013-08-22 06:09:00,
2013-08-22 02:24:00,57.1,55.0,30.08,West,270,0.0,-999.0,93,-99.99,,,0.00,0,weatherlink.com 1.10,2013-08-22 06:24:00,
2013-08-22 02:39:00,57.0,55.0,30.09,West,270,0.0,-999.0,92,-99.99,,,0.00,0,weatherlink.com 1.10,2013-08-22 06:39:00,
2013-08-22 02:54:00,56.8,55.0,30.09,West,270,0.0,-999.0,93,-99.99,,,0.00,0,weatherlink.com 1.10,2013-08-22 06:54:00,
2013-08-22 03:09:00,56.6,55.0,30.09,West,270,0.0,-999.0,93,-99.99,,,0.00,0,weatherlink.com 1.10,2013-08-22 07:09:00,
2013-08-22 03:24:00,56.4,55.0,30.09,West,270,0.0,-999.0,93,-99.99,,,0.00,0,weatherlink.com 1.10,2013-08-22 07:24:00,
2013-08-22 03:39:00,56.3,54.0,30.08,West,270,0.0,-999.0,93,-99.99,,,0.00,0,weatherlink.com 1.10,2013-08-22 07:39:00,
2013-08-22 03:54:00,56.2,54.0,30.07,West,270,0.0,-999.0,93,-99.99,,,0.00,0,weatherlink.com 1.10,2013-08-22 07:54:00,
2013-08-22 04:09:00,56.0,54.0,30.06,West,270,0.0,-999.0,93,-99.99,,,0.00,0,weatherlink.com 1.10,2013-08-22 08:09:00,
2013-08-22 04:24:00,55.8,54.0,30.05,West,270,0.0,-999.0,93,-99.99,,,0.00,0,weatherlink.com 1.10,2013-08-22 08:24:00,
2013-08-22 04:39:00,55.6,54.0,30.05,West,270,0.0,-999.0,93,-99.99,,,0.00,0,weatherlink.com 1.10,2013-08-22 08:39:00,
2013-08-22 04:54:00,55.4,54.0,30.05,West,270,0.0,-999.0,93,-99.99,,,0.00,0,weatherlink.com 1.10,2013-08-22 08:54:00,
2013-08-22 05:09:00,55.4,54.0,30.04,West,270,0.0,-999.0,93,-99.99,,,0.00,0,weatherlink.com 1.10,2013-08-22 09:09:00,
2013-08-22 05:24:00,55.2,53.0,30.03,West,270,0.0,-999.0,93,-99.99,,,0.00,0,weatherlink.com 1.10,2013-08-22 09:24:00,
2013-08-22 05:39:00,55.1,53.0,30.03,West,270,0.0,-999.0,93,-99.99,,,0.00,0,weatherlink.com 1.10,2013-08-22 09:39:00,
2013-08-22 05:54:00,54.9,53.0,30.03,West,270,0.0,-999.0,93,-99.99,,,0.00,0,weatherlink.com 1.10,2013-08-22 09:54:00,
2013-08-22 06:09:00,54.7,53.0,30.03,West,270,0.0,-999.0,93,-99.99,,,0.00,0,weatherlink.com 1.10,2013-08-22 10:09:00,
2013-08-22 06:24:00,54.6,53.0,30.03,West,270,0.0,-999.0,94,-99.99,,,0.00,7,weatherlink.com 1.10,2013-08-22 10:24:00,
2013-08-22 06:39:00,54.5,53.0,30.03,West,270,0.0,-999.0,93,-99.99,,,0.00,18,weatherlink.com 1.10,2013-08-22 10:39:00,
2013-08-22 08:39:00,62.2,61.0,30.04,SW,232,1.0,-999.0,94,-99.99,,,0.00,385,weatherlink.com 1.10,2013-08-22 12:39:00,
2013-08-22 08:54:00,64.4,62.0,30.04,SW,231,1.0,-999.0,91,-99.99,,,0.00,387,weatherlink.com 1.10,2013-08-22 12:54:00,
2013-08-22 09:09:00,67.4,63.0,30.04,SSE,167,1.0,-999.0,85,-99.99,,,0.00,462,weatherlink.com 1.10,2013-08-22 13:09:00,
2013-08-22 09:24:00,69.6,63.0,30.03,South,175,0.0,-999.0,79,-99.99,,,0.00,193,weatherlink.com 1.10,2013-08-22 13:24:00,
2013-08-22 09:39:00,71.0,63.0,30.03,SSW,192,0.0,-999.0,77,-99.99,,,0.00,329,weatherlink.com 1.10,2013-08-22 13:39:00,
2013-08-22 09:54:00,71.8,64.0,30.03,South,187,1.0,-999.0,75,-99.99,,,0.00,519,weatherlink.com 1.10,2013-08-22 13:54:00,
2013-08-22 10:09:00,73.0,64.0,30.02,South,177,2.0,-999.0,74,-99.99,,,0.00,592,weatherlink.com 1.10,2013-08-22 14:09:00,
2013-08-22 10:24:00,74.2,64.0,30.02,SSE,156,3.0,-999.0,70,-99.99,,,0.00,629,weatherlink.com 1.10,2013-08-22 14:24:00,
2013-08-22 10:39:00,75.6,65.0,30.02,South,188,8.0,-999.0,69,-99.99,,,0.00,675,weatherlink.com 1.10,2013-08-22 14:39:00,
2013-08-22 10:54:00,76.7,64.0,30.02,SW,215,1.0,-999.0,66,-99.99,,,0.00,679,weatherlink.com 1.10,2013-08-22 14:54:00,
2013-08-22 11:09:00,77.6,65.0,30.01,South,188,3.0,-999.0,66,-99.99,,,0.00,710,weatherlink.com 1.10,2013-08-22 15:09:00,
2013-08-22 11:24:00,78.2,63.0,30.01,SW,219,5.0,-999.0,60,-99.99,,,0.00,779,weatherlink.com 1.10,2013-08-22 15:24:00,
2013-08-22 11:39:00,77.4,64.0,30.00,SW,225,1.0,-999.0,64,-99.99,,,0.00,872,weatherlink.com 1.10,2013-08-22 15:39:00,
2013-08-22 11:54:00,79.3,65.0,30.00,West,270,4.0,-999.0,61,-99.99,,,0.00,895,weatherlink.com 1.10,2013-08-22 15:54:00,
2013-08-22 12:09:00,78.6,64.0,30.00,SSW,196,4.0,-999.0,61,-99.99,,,0.00,893,weatherlink.com 1.10,2013-08-22 16:09:00,
2013-08-22 12:24:00,79.5,62.0,29.99,West,266,5.0,-999.0,55,-99.99,,,0.00,851,weatherlink.com 1.10,2013-08-22 16:24:00,
2013-08-22 12:39:00,79.0,60.0,29.98,WSW,246,1.0,-999.0,53,-99.99,,,0.00,160,weatherlink.com 1.10,2013-08-22 16:39:00,
2013-08-22 12:54:00,81.2,62.0,29.97,WNW,288,4.0,-999.0,52,-99.99,,,0.00,831,weatherlink.com 1.10,2013-08-22 16:54:00,
2013-08-22 13:09:00,80.5,60.0,29.96,SSW,213,0.0,-999.0,50,-99.99,,,0.00,851,weatherlink.com 1.10,2013-08-22 17:09:00,
2013-08-22 13:24:00,81.6,62.0,29.95,SW,226,3.0,-999.0,51,-99.99,,,0.00,925,weatherlink.com 1.10,2013-08-22 17:24:00,
2013-08-22 13:39:00,82.1,62.0,29.95,ESE,123,5.0,-999.0,50,-99.99,,,0.00,963,weatherlink.com 1.10,2013-08-22 17:39:00,
2013-08-22 13:54:00,82.3,60.0,29.95,WSW,244,5.0,-999.0,47,-99.99,,,0.00,911,weatherlink.com 1.10,2013-08-22 17:54:00,
2013-08-22 14:09:00,81.0,59.0,29.95,West,261,3.0,-999.0,47,-99.99,,,0.00,260,weatherlink.com 1.10,2013-08-22 18:09:00,
2013-08-22 14:24:00,82.2,59.0,29.94,SSW,194,2.0,-999.0,45,-99.99,,,0.00,754,weatherlink.com 1.10,2013-08-22 18:24:00,
2013-08-22 14:39:00,81.4,59.0,29.94,West,265,11.0,-999.0,46,-99.99,,,0.00,283,weatherlink.com 1.10,2013-08-22 18:39:00,
2013-08-22 14:54:00,81.8,59.0,29.93,SE,136,4.0,-999.0,46,-99.99,,,0.00,675,weatherlink.com 1.10,2013-08-22 18:54:00,
2013-08-22 15:09:00,81.2,59.0,29.92,WSW,244,4.0,-999.0,47,-99.99,,,0.00,684,weatherlink.com 1.10,2013-08-22 19:09:00,
2013-08-22 15:24:00,81.5,60.0,29.91,South,180,0.0,-999.0,48,-99.99,,,0.00,239,weatherlink.com 1.10,2013-08-22 19:24:00,
2013-08-22 15:39:00,80.9,60.0,29.91,SW,230,0.0,-999.0,49,-99.99,,,0.00,564,weatherlink.com 1.10,2013-08-22 19:39:00,
2013-08-22 15:55:00,82.1,62.0,29.91,WSW,250,3.0,-999.0,50,-99.99,,,0.00,582,weatherlink.com 1.10,2013-08-22 19:55:00,
2013-08-22 16:09:00,81.5,60.0,29.90,WSW,258,3.0,-999.0,49,-99.99,,,0.00,471,weatherlink.com 1.10,2013-08-22 20:09:00,
2013-08-22 16:24:00,81.0,62.0,29.90,WSW,254,3.0,-999.0,52,-99.99,,,0.00,443,weatherlink.com 1.10,2013-08-22 20:24:00,
2013-08-22 16:39:00,80.6,61.0,29.89,WSW,250,2.0,-999.0,52,-99.99,,,0.00,469,weatherlink.com 1.10,2013-08-22 20:39:00,
2013-08-22 16:54:00,80.5,62.0,29.89,WSW,249,4.0,-999.0,53,-99.99,,,0.00,396,weatherlink.com 1.10,2013-08-22 20:54:00,
2013-08-22 17:09:00,80.6,61.0,29.88,SW,217,5.0,-999.0,52,-99.99,,,0.00,336,weatherlink.com 1.10,2013-08-22 21:09:00,
2013-08-22 17:24:00,80.2,62.0,29.88,SW,227,2.0,-999.0,54,-99.99,,,0.00,308,weatherlink.com 1.10,2013-08-22 21:24:00,
2013-08-22 17:39:00,80.0,62.0,29.88,WSW,248,3.0,-999.0,55,-99.99,,,0.00,262,weatherlink.com 1.10,2013-08-22 21:39:00,
2013-08-22 17:54:00,79.6,62.0,29.88,SW,230,5.0,-999.0,56,-99.99,,,0.00,197,weatherlink.com 1.10,2013-08-22 21:54:00,
2013-08-22 18:09:00,78.9,63.0,29.89,WSW,238,2.0,-999.0,58,-99.99,,,0.00,114,weatherlink.com 1.10,2013-08-22 22:09:00,
2013-08-22 18:24:00,78.1,62.0,29.89,West,267,2.0,-999.0,59,-99.99,,,0.00,90,weatherlink.com 1.10,2013-08-22 22:24:00,
2013-08-22 18:39:00,77.3,63.0,29.89,WSW,245,1.0,-999.0,61,-99.99,,,0.00,58,weatherlink.com 1.10,2013-08-22 22:39:00,
2013-08-22 18:54:00,76.8,63.0,29.88,WSW,245,0.0,-999.0,63,-99.99,,,0.00,67,weatherlink.com 1.10,2013-08-22 22:54:00,
2013-08-22 19:09:00,76.4,63.0,29.88,WSW,240,0.0,-999.0,64,-99.99,,,0.00,30,weatherlink.com 1.10,2013-08-22 23:09:00,
2013-08-22 19:24:00,75.9,63.0,29.88,WSW,240,0.0,-999.0,65,-99.99,,,0.00,19,weatherlink.com 1.10,2013-08-22 23:24:00,
2013-08-22 19:39:00,75.2,63.0,29.89,North,9,6.0,-999.0,66,-99.99,,,0.00,0,weatherlink.com 1.10,2013-08-22 23:39:00,
2013-08-22 19:54:00,73.5,64.0,29.90,NW,304,2.0,-999.0,71,-99.99,,,0.00,0,weatherlink.com 1.10,2013-08-22 23:54:00,
2013-08-22 20:09:00,72.1,63.0,29.90,North,350,1.0,-999.0,73,-99.99,,,0.00,0,weatherlink.com 1.10,2013-08-23 00:09:00,
2013-08-22 20:24:00,71.1,62.0,29.91,NW,304,0.0,-999.0,74,-99.99,,,0.00,0,weatherlink.com 1.10,2013-08-23 00:24:00,
2013-08-22 20:39:00,70.3,62.0,29.91,WSW,244,1.0,-999.0,75,-99.99,,,0.00,0,weatherlink.com 1.10,2013-08-23 00:39:00,
2013-08-22 20:54:00,69.7,62.0,29.91,WSW,239,2.0,-999.0,76,-99.99,,,0.00,0,weatherlink.com 1.10,2013-08-23 00:54:00,
2013-08-22 21:09:00,69.2,62.0,29.91,South,190,1.0,-999.0,78,-99.99,,,0.00,0,weatherlink.com 1.10,2013-08-23 01:09:00,
2013-08-22 21:24:00,68.5,63.0,29.92,SSW,192,1.0,-999.0,81,-99.99,,,0.00,0,weatherlink.com 1.10,2013-08-23 01:24:00,
2013-08-22 21:39:00,68.0,63.0,29.93,SW,217,1.0,-999.0,83,-99.99,,,0.00,0,weatherlink.com 1.10,2013-08-23 01:39:00,
2013-08-22 21:54:00,68.0,63.0,29.93,North,355,6.0,-999.0,85,-99.99,,,0.00,0,weatherlink.com 1.10,2013-08-23 01:54:00,
2013-08-22 22:09:00,67.9,63.0,29.92,West,269,0.0,-999.0,85,-99.99,,,0.00,0,weatherlink.com 1.10,2013-08-23 02:09:00,
2013-08-22 22:24:00,67.7,63.0,29.93,WNW,285,0.0,-999.0,86,-99.99,,,0.00,0,weatherlink.com 1.10,2013-08-23 02:24:00,
2013-08-22 22:39:00,67.7,63.0,29.93,WSW,253,3.0,-999.0,86,-99.99,,,0.00,0,weatherlink.com 1.10,2013-08-23 02:39:00,
2013-08-22 22:54:00,67.6,63.0,29.93,WSW,250,2.0,-999.0,86,-99.99,,,0.00,0,weatherlink.com 1.10,2013-08-23 02:54:00,
2013-08-22 23:09:00,67.5,63.0,29.93,West,263,3.0,-999.0,86,-99.99,,,0.00,0,weatherlink.com 1.10,2013-08-23 03:09:00,
2013-08-22 23:24:00,67.5,64.0,29.93,WSW,255,2.0,-999.0,87,-99.99,,,0.00,0,weatherlink.com 1.10,2013-08-23 03:24:00,
2013-08-22 23:39:00,67.4,64.0,29.93,WNW,288,2.0,-999.0,87,-99.99,,,0.00,0,weatherlink.com 1.10,2013-08-23 03:39:00,
2013-08-22 23:54:00,67.3,63.0,29.93,North,9,0.0,-999.0,87,-99.99,,,0.00,0,weatherlink.com 1.10,2013-08-23 03:54:00,